Location: Ostrava
(49.8330°N, 18.2830°E)
Time: 01:12:25
(UTC+02:00)

Envisat - Pass Details

Date: 25 January 2022
Orbit: 764 x 765 km, 98.2° (Epoch: 21 May)

Event Time Altitude Azimuth Distance (km) Brightness Sun altitude
Rises 17:12:48 0° 215° (SW) 3,219 7.3 -7.1°
Reaches altitude 10° 17:16:08 10° 239° (WSW) 2,299 7.1 -7.6°
Maximum altitude 17:18:58 15° 273° (W) 1,983 6.3 -8.1°
Drops below altitude 10° 17:21:49 10° 308° (NW) 2,309 6.0 -8.5°
Sets 17:25:12 0° 331° (NNW) 3,241 6.4 -9.0°
